Location: Bogis-Bossey
(46.3500°N, 6.1667°E)
Time: 19:13:04
(UTC+00:00)

Cosmos 2233 Rocket - Pass Details

Date: 17 August 2022
Orbit: 953 x 990 km, 82.9° (Epoch: 01 October)

Event Time Altitude Azimuth Distance (km) Brightness Sun altitude
Rises 20:31:11 0° 352° (N) 3,702 7.8 -17.0°
Reaches altitude 10° 20:33:43 10° 355° (N) 2,754 7.0 -17.3°
Maximum altitude 20:40:02 71° 80° (E) 1,044 4.0 -18.1°
Enters shadow 20:43:39 27° 159° (SSE) 1,793 4.9 -18.6°
